Location: Columbus
(35.2256°N, 82.1549°W)
Time: 03:28:55
(UTC-05:00)

Tiangong - Visible Passes

Search period start: 04 December 2021 00:00
Search period end: 14 December 2021 00:00
Orbit: 379 x 385 km, 41.5° (Epoch: 04 December)

Date Brightness Start Highest point End Pass type
(mag) Time Alt. Az. Time Alt. Az. Time Alt. Az.
04 Dec 4.1 19:23:49 10° SSW 19:24:05 12° SSW 19:24:05 12° SSW visible
05 Dec 3.3 18:24:33 10° S 18:26:14 14° SE 18:26:47 13° SE visible
06 Dec 2.1 18:59:12 10° SW 19:01:35 40° SSW 19:01:35 40° SSW visible
07 Dec 2.6 17:59:11 10° SSW 18:01:51 25° SE 18:04:07 12° E visible
07 Dec 4.1 19:35:25 10° W 19:36:17 17° W 19:36:17 17° W visible
08 Dec 0.9 18:34:47 10° WSW 18:37:56 89° NW 18:38:44 47° ENE visible
09 Dec 2.9 19:11:19 10° W 19:13:16 28° NW 19:13:16 28° NW visible
10 Dec 1.5 18:10:30 10° W 18:13:36 53° NNW 18:15:36 19° NE visible
11 Dec 2.4 18:47:10 10° WNW 18:49:58 28° N 18:50:02 28° N visible
12 Dec 2.0 17:46:15 10° W 17:49:11 36° NNW 17:52:10 10° NE visible
12 Dec 3.9 19:23:46 10° NW 19:24:26 14° NW 19:24:26 14° NW visible
13 Dec 2.5 18:22:54 10° WNW 18:25:36 25° N 18:26:40 21° NNE visible
